Location: ?????
(37.7324°N, 23.9257°E)
Time: 22:28:32
(UTC+00:00)

ATLAS 3B R/B - Pass Details

Date: 29 November 2020
Orbit: 1013 x 1182 km, 63.8° (Epoch: 08 January)

Event Time Altitude Azimuth Distance (km) Brightness Sun altitude
Exits shadow 03:30:35 13° 338° (NNW) 2,707 4.5 -21.0°
Maximum altitude 03:36:44 54° 53° (NE) 1,335 3.4 -19.8°
Drops below altitude 10° 03:43:47 10° 130° (SE) 3,034 6.0 -18.5°
Sets 03:46:37 0° 135° (SE) 4,011 6.7 -17.9°
